Location: Devore Heights
(34.2372°N, 117.4156°W)
Time: 15:32:06
(UTC+00:00)

A-11 Canister half - Visible Passes

Search period start: 13 September 2024 00:00
Search period end: 23 September 2024 00:00
Orbit: 1515 x 1684 km, 47.2° (Epoch: 13 September)

Date Brightness Start Highest point End Pass type
(mag) Time Alt. Az. Time Alt. Az. Time Alt. Az.
13 Sep 9.4 03:25:32 10° WSW 03:34:49 61° NNW 03:43:57 10° NE visible
13 Sep 10.0 05:32:50 10° WNW 05:41:15 37° N 05:43:44 32° NNE visible
13 Sep 10.6 07:39:09 10° NW 07:41:53 21° NW 07:41:53 21° NW visible
13 Sep 10.9 10:02:13 12° SE 10:02:13 12° SE 10:02:49 10° SE visible
13 Sep 10.4 12:00:32 15° SSW 12:00:32 15° SSW 12:02:55 10° SSW visible
14 Sep 9.3 03:02:27 10° WSW 03:11:47 64° NNW 03:20:59 10° NE visible
14 Sep 10.0 05:09:43 10° WNW 05:18:09 37° N 05:21:39 28° NE visible
14 Sep 10.4 07:16:09 10° NW 07:19:49 25° NW 07:19:49 25° NW visible
14 Sep 10.7 11:40:16 10° SSW 11:40:16 10° SSW 11:40:28 10° SSW visible
15 Sep 9.3 02:39:22 10° WSW 02:48:45 67° NNW 02:58:00 10° NE visible
15 Sep 9.9 04:46:34 10° WNW 04:55:03 37° N 04:59:35 25° NE visible
15 Sep 10.3 06:53:07 10° NW 06:57:44 30° NNW 06:57:44 30° NNW visible
16 Sep 9.3 02:16:18 10° WSW 02:25:45 70° NNW 02:35:01 10° NE visible
16 Sep 9.9 04:23:26 10° WNW 04:31:58 38° N 04:37:29 21° NE visible
16 Sep 10.1 06:30:06 10° NW 06:35:39 34° NNW 06:35:39 34° NNW visible
17 Sep 9.9 04:00:17 10° WNW 04:08:52 39° N 04:15:25 17° NE visible
17 Sep 9.9 06:07:04 10° NW 06:13:34 38° NNW 06:13:34 38° NNW visible
18 Sep 9.9 03:37:09 10° WNW 03:45:46 39° NNW 03:53:21 13° NE visible
18 Sep 9.8 05:44:02 10° NW 05:51:30 40° N 05:51:30 40° N visible
18 Sep 11.0 07:49:11 10° NW 07:49:40 12° NW 07:49:40 12° NW visible
19 Sep 9.9 03:13:59 10° W 03:22:41 40° NNW 03:31:16 10° NE visible
19 Sep 9.7 05:20:59 10° NW 05:29:26 40° N 05:29:26 40° N visible
19 Sep 10.9 07:26:12 10° NW 07:27:37 16° NW 07:27:37 16° NW visible
20 Sep 9.9 02:50:50 10° W 02:59:36 41° NNW 03:08:14 10° NE visible
20 Sep 9.7 04:57:56 10° NW 05:06:31 40° NNE 05:07:23 39° NNE visible
20 Sep 10.7 07:03:13 10° NW 07:05:33 20° NW 07:05:33 20° NW visible
21 Sep 9.9 02:27:40 10° W 02:36:31 42° NNW 02:45:12 10° NE visible
21 Sep 9.7 04:34:52 10° WNW 04:43:26 39° N 04:45:22 36° NE visible
21 Sep 10.5 06:40:14 10° NW 06:43:31 25° NW 06:43:31 25° NW visible
22 Sep 9.9 02:04:30 10° W 02:13:26 44° NNW 02:22:11 10° NE visible
22 Sep 9.8 04:11:48 10° WNW 04:20:20 38° N 04:23:20 31° NE visible
22 Sep 10.2 06:17:15 10° NW 06:21:30 31° NW 06:21:30 31° NW visible
